Location: Zilina
(0.0000°N, 18.7333°E)
Time: 10:56:24
(UTC+02:00)

COBE Rocket - Pass Details

Date: 19 February 2019
Orbit: 681 x 781 km, 97.1° (Epoch: 13 October)

Event Time Altitude Azimuth Distance (km) Brightness Sun altitude
Exits shadow 19:45:56 84° 49° (NE) 773 3.8 -26.2°
Maximum altitude 19:46:05 86° 102° (ESE) 770 3.8 -26.2°
Drops below altitude 10° 19:51:07 10° 190° (S) 2,274 6.7 -27.5°
Sets 19:53:23 0° 190° (S) 3,186 7.5 -28.0°
